Starlink 1153

operational
NORAD ID: 45080 Int'l Des: 2020-006 Owner: SPXS Country: US Constellation: starlink
LEOCIRCULARSTARLINK_TYPE

Starlink 1153について

説明を読み込み中...

リアルタイム位置

3D地球を読み込み中...

次回通過

高度履歴

Altitude vs Time

uPlot chart will show altitude changes over time

軌道要素

1 45080U 20006AN 25261.14770837 -.00000505 00000-0 -15024-4 0 9996
2 45080 53.0555 321.1929 0001459 83.8126 276.3030 15.06389476310730
Epoch: Sep 18, 2025 • Age: 14 hours

現在のステータス

高度 559.2 km
速度 7.58 km/s
衛星直下点 -35.32°S, 23.58°E
打ち上げ日 Jan 29, 2020
運用期間 5.6 years
タイプ internet

技術仕様

分類 Payload
質量 260.00 kg
乾燥質量 248.00 kg
総質量 260.00 kg
長さ 0.20 m
直径 2.80 m
スパン 9.00 m
形状 Box + pan
製造者 SPXS
バスタイプ Starlink
フェーズステータス In Orbit
所有者/国 SPXS/US

大規模コンステレーション

Loading constellations...